FW5903 Weather Reports


time (UTC)temp
C
wind
direction
speed
KPH
gust
KPH
rain 1hr
cm
rain 24hr
cm
rain mn
cm
humidity
%
barometer
mb
20260906191600 26 131 1.6 1.6 0.00 0.00 0.00 74 1018.0
20260906191059 26 168 1.6 3.2 0.00 0.00 0.00 74 1018.3
20260906190558 26 145 0.0 0.0 0.00 0.00 0.00 74 1018.3
20260906190053 27 137 1.6 1.6 0.00 0.00 0.00 74 1018.3
20260906185552 26 131 0.0 0.0 0.00 0.00 0.00 74 1018.1
20260906185051 26 88 3.2 3.2 0.00 0.00 0.00 73 1018.1
20260906184546 26 126 1.6 3.2 0.00 0.00 0.00 75 1018.3
20260906184042 26 167 1.6 3.2 0.00 0.00 0.00 76 1018.2
20260906183538 26 161 3.2 3.2 0.00 0.00 0.00 77 1018.2
20260906183034 25 182 3.2 3.2 0.00 0.00 0.00 77 1018.3
20260906182528 25 72 1.6 3.2 0.00 0.00 0.00 77 1018.4
20260906182025 26 164 1.6 1.6 0.00 0.00 0.00 77 1018.3
20260906181520 26 229 3.2 4.8 0.00 0.00 0.00 76 1018.4
20260906181016 26 119 4.8 4.8 0.00 0.00 0.00 76 1018.5
20260906180510 26 190 4.8 8.0 0.00 0.00 0.00 76 1018.4
20260906180009 26 146 3.2 3.2 0.00 0.00 0.00 77 1018.3
20260906175508 25 160 1.6 1.6 0.00 0.00 0.00 78 1018.6
20260906175003 25 166 1.6 1.6 0.00 0.00 0.00 79 1018.3
20260906174501 25 175 3.2 3.2 0.00 0.00 0.00 79 1018.5
20260906173956 25 170 1.6 1.6 0.00 0.00 0.00 80 1018.5
20260906173452 25 149 0.0 1.6 0.00 0.00 0.00 81 1018.6
20260906172951 24 146 1.6 1.6 0.00 0.00 0.00 81 1018.7
20260906172447 24 116 0.0 1.6 0.00 0.00 0.00 81 1018.7
20260906171942 24 162 1.6 3.2 0.00 0.00 0.00 82 1018.7
20260906171437 24 164 3.2 4.8 0.00 0.00 0.00 82 1018.7
20260906170933 24 179 1.6 3.2 0.00 0.00 0.00 81 1018.5
20260906170429 24 125 0.0 1.6 0.00 0.00 0.00 81 1018.9
20260906165925 24 190 3.2 4.8 0.00 0.00 0.00 82 1019.1
20260906165425 25 170 1.6 3.2 0.00 0.00 0.00 81 1019.2
20260906164920 25 180 3.2 3.2 0.00 0.00 0.00 81 1019.1
20260906164419 24 178 1.6 3.2 0.00 0.00 0.00 81 1019.2
20260906163915 24 168 0.0 1.6 0.00 0.00 0.00 82 1019.0
20260906163411 24 118 3.2 4.8 0.00 0.00 0.00 83 1019.0
20260906162909 23 170 0.0 0.0 0.00 0.00 0.00 84 1019.1
20260906162407 23 177 0.0 1.6 0.00 0.00 0.00 85 1019.2
20260906161903 23 160 1.6 1.6 0.00 0.00 0.00 85 1019.3
20260906161402 23 162 0.0 1.6 0.00 0.00 0.00 86 1019.3
20260906160901 23 133 1.6 1.6 0.00 0.00 0.00 85 1019.5
20260906160355 23 161 1.6 3.2 0.00 0.00 0.00 85 1019.2
20260906155853 23 153 0.0 1.6 0.00 0.00 0.00 86 1019.3
20260906155347 22 194 3.2 4.8 0.00 0.00 0.00 86 1019.5
20260906154844 22 154 1.6 1.6 0.00 0.00 0.00 86 1019.4
20260906154343 22 166 3.2 3.2 0.00 0.00 0.00 86 1019.3
20260906153842 22 175 4.8 4.8 0.00 0.00 0.00 87 1019.6
20260906153336 22 169 1.6 1.6 0.00 0.00 0.00 86 1019.4
20260906152831 22 177 0.0 1.6 0.00 0.00 0.00 87 1019.6
20260906152326 22 148 4.8 4.8 0.00 0.00 0.00 87 1019.5
20260906151825 22 161 1.6 1.6 0.00 0.00 0.00 87 1019.5
20260906151321 22 153 1.6 3.2 0.00 0.00 0.00 86 1019.6
20260906150817 23 166 3.2 3.2 0.00 0.00 0.00 86 1019.6
20260906150312 22 169 0.0 1.6 0.00 0.00 0.00 87 1019.6
20260906145811 22 149 1.6 1.6 0.00 0.00 0.00 88 1019.5
20260906145309 22 146 1.6 1.6 0.00 0.00 0.00 87 1019.4
20260906144805 22 175 4.8 4.8 0.00 0.00 0.00 87 1019.1
20260906144300 23 182 3.2 4.8 0.00 0.00 0.00 86 1019.3
20260906143759 23 158 3.2 3.2 0.00 0.00 0.00 85 1019.3
20260906143256 23 133 1.6 1.6 0.00 0.00 0.00 86 1019.4
20260906142756 23 160 0.0 0.0 0.00 0.00 0.00 87 1019.2
20260906142252 23 168 1.6 3.2 0.00 0.00 0.00 88 1019.2
20260906141750 22 70 3.2 8.0 0.00 0.00 0.00 88 1019.1
20260906141245 22 155 0.0 0.0 0.00 0.00 0.00 88 1019.3
20260906140744 22 182 6.4 8.0 0.00 0.00 0.00 88 1019.2
20260906140239 22 152 1.6 1.6 0.00 0.00 0.00 89 1018.9
20260906135736 22 143 0.0 0.0 0.00 0.00 0.00 89 1019.1
20260906135232 22 193 3.2 3.2 0.00 0.00 0.00 89 1019.2
20260906134727 22 166 0.0 0.0 0.00 0.00 0.00 89 1019.2
20260906134223 22 160 1.6 1.6 0.00 0.00 0.00 90 1019.0
20260906133718 22 133 0.0 0.0 0.00 0.00 0.00 90 1018.9
20260906133214 22 156 0.0 1.6 0.00 0.00 0.00 91 1019.2
20260906132709 22 165 0.0 0.0 0.00 0.00 0.00 91 1018.7
20260906132204 21 178 0.0 1.6 0.00 0.00 0.00 92 1018.5
20260906131700 21 141 0.0 0.0 0.00 0.00 0.00 93 1018.6
20260906131154 21 147 0.0 0.0 0.00 0.00 0.00 94 1018.6
20260906130649 21 144 0.0 0.0 0.00 0.00 0.00 95 1018.6
20260906130145 21 139 0.0 0.0 0.00 0.00 0.00 96 1018.6
20260906125643 21 156 0.0 1.6 0.00 0.00 0.00 96 1018.7
20260906125142 21 144 0.0 0.0 0.00 0.00 0.00 97 1018.9
20260906124638 20 149 0.0 0.0 0.00 0.00 0.00 97 1018.6
20260906124133 20 165 0.0 0.0 0.00 0.00 0.00 97 1018.7
20260906123632 20 148 0.0 0.0 0.00 0.00 0.00 98 1018.3
20260906123127 20 155 0.0 1.6 0.00 0.00 0.00 98 1018.7
20260906122626 20 138 0.0 0.0 0.00 0.00 0.00 98 1018.6
20260906122122 20 120 0.0 0.0 0.00 0.00 0.00 98 1018.5
20260906121618 20 115 0.0 0.0 0.00 0.00 0.00 98 1018.6
20260906121114 20 140 0.0 0.0 0.00 0.00 0.00 98 1018.5
20260906120609 20 142 0.0 0.0 0.00 0.00 0.00 98 1018.5
20260906120107 20 147 0.0 0.0 0.00 0.00 0.00 98 1018.3
20260906115607 20 145 0.0 0.0 0.00 0.00 0.00 98 1018.2
20260906115102 20 170 1.6 1.6 0.00 0.00 0.00 98 1018.2
20260906114556 20 142 0.0 0.0 0.00 0.00 0.00 98 1018.3
20260906114051 20 146 0.0 0.0 0.00 0.00 0.00 98 1018.5
20260906113550 20 146 0.0 0.0 0.00 0.00 0.00 98 1018.4
20260906113045 20 141 0.0 0.0 0.00 0.00 0.00 97 1018.2
20260906112540 20 143 0.0 0.0 0.00 0.00 0.00 97 1018.1
20260906112036 20 143 0.0 0.0 0.00 0.00 0.00 97 1018.0
20260906111536 20 149 0.0 0.0 0.00 0.00 0.00 97 1018.3
20260906111031 20 143 0.0 0.0 0.00 0.00 0.00 97 1018.2
20260906110526 20 163 0.0 0.0 0.00 0.00 0.00 97 1018.1
20260906110025 20 146 0.0 0.0 0.00 0.00 0.00 97 1018.2
20260906105520 20 148 0.0 0.0 0.00 0.00 0.00 97 1018.1
20260906105016 20 142 0.0 0.0 0.00 0.00 0.00 96 1018.0
20260906104514 20 142 0.0 0.0 0.00 0.00 0.00 96 1018.2
20260906104009 20 143 0.0 0.0 0.00 0.00 0.00 96 1018.0
20260906103508 20 134 0.0 0.0 0.00 0.00 0.00 96 1018.2
20260906103003 20 140 0.0 0.0 0.00 0.00 0.00 96 1018.3
20260906102502 20 146 0.0 0.0 0.00 0.00 0.00 96 1018.0
20260906102002 20 142 0.0 0.0 0.00 0.00 0.00 95 1018.2
20260906101457 20 142 0.0 0.0 0.00 0.00 0.00 95 1018.1
20260906100952 20 140 0.0 0.0 0.00 0.00 0.00 95 1017.9
20260906100448 21 146 0.0 0.0 0.00 0.00 0.00 95 1018.0
20260906095942 21 138 0.0 0.0 0.00 0.00 0.00 94 1018.0
20260906095438 21 147 0.0 0.0 0.00 0.00 0.00 94 1017.9
20260906094932 21 137 0.0 0.0 0.00 0.00 0.00 94 1017.7
20260906094426 21 152 0.0 0.0 0.00 0.00 0.00 94 1017.5
20260906093922 21 147 0.0 0.0 0.00 0.00 0.00 93 1017.4
20260906093419 21 144 0.0 0.0 0.00 0.00 0.00 93 1017.4
20260906092918 21 145 0.0 0.0 0.00 0.00 0.00 93 1017.2
20260906092412 21 146 0.0 0.0 0.00 0.00 0.00 93 1017.4
20260906091908 21 156 0.0 0.0 0.00 0.00 0.00 93 1017.4
20260906091404 21 166 1.6 1.6 0.00 0.00 0.00 93 1017.2
20260906090900 21 146 0.0 1.6 0.00 0.00 0.00 93 1017.3
20260906090400 21 150 0.0 0.0 0.00 0.00 0.00 93 1017.3
20260906085854 21 166 0.0 1.6 0.00 0.00 0.00 93 1017.5
20260906085354 21 138 0.0 0.0 0.00 0.00 0.00 93 1017.5
20260906084848 21 146 0.0 0.0 0.00 0.00 0.00 93 1017.6
20260906084348 21 149 0.0 0.0 0.00 0.00 0.00 93 1017.6
20260906083837 21 155 0.0 0.0 0.00 0.00 0.00 93 1017.4
20260906083333 21 154 0.0 0.0 0.00 0.00 0.00 92 1017.2
20260906082832 21 140 0.0 0.0 0.00 0.00 0.00 92 1017.5
20260906082327 21 147 0.0 0.0 0.00 0.00 0.00 92 1017.3
20260906081823 21 144 0.0 0.0 0.00 0.00 0.00 92 1017.1
20260906081319 21 155 0.0 1.6 0.00 0.00 0.00 92 1017.4
20260906080815 22 131 0.0 0.0 0.00 0.00 0.00 92 1017.2
20260906080311 21 60 1.6 3.2 0.00 0.00 0.00 92 1017.2
20260906075810 21 143 0.0 0.0 0.00 0.00 0.00 92 1017.0
20260906075310 21 135 0.0 0.0 0.00 0.00 0.00 92 1017.2
20260906074806 22 125 0.0 0.0 0.00 0.00 0.00 92 1017.4
20260906074305 22 134 0.0 0.0 0.00 0.00 0.00 92 1017.3
20260906073804 22 114 0.0 0.0 0.00 0.00 0.00 92 1017.2
20260906073259 22 138 0.0 0.0 0.00 0.00 0.00 91 1017.3
20260906072755 22 148 0.0 0.0 0.00 0.00 0.00 91 1017.3
20260906072250 22 146 0.0 0.0 0.00 0.00 0.00 91 1017.5
20260906071746 22 143 0.0 0.0 0.00 0.00 0.00 91 1017.4
20260906071246 22 149 0.0 0.0 0.00 0.00 0.00 90 1017.5
20260906070743 22 141 0.0 0.0 0.00 0.00 0.00 90 1017.4
20260906070238 22 150 0.0 0.0 0.00 0.00 0.00 90 1017.5
20260906065738 22 158 1.6 1.6 0.00 0.00 0.00 90 1017.6
20260906065233 22 137 0.0 0.0 0.00 0.00 0.00 90 1017.7
20260906064729 22 149 0.0 0.0 0.00 0.00 0.00 90 1017.7
20260906064224 22 158 0.0 0.0 0.00 0.00 0.00 90 1017.8
20260906063719 22 151 0.0 0.0 0.00 0.00 0.00 90 1017.5
20260906063215 22 143 0.0 0.0 0.00 0.00 0.00 90 1017.6
20260906062710 22 156 0.0 0.0 0.00 0.00 0.00 90 1017.6
20260906062209 22 147 1.6 1.6 0.00 0.00 0.00 90 1017.7
20260906061705 22 146 0.0 0.0 0.00 0.00 0.00 90 1017.7
20260906061201 22 133 0.0 0.0 0.00 0.00 0.00 90 1017.8
20260906060657 22 140 0.0 0.0 0.00 0.00 0.00 91 1017.6
20260906060154 22 139 0.0 0.0 0.00 0.00 0.00 91 1017.7
20260906055649 22 141 0.0 0.0 0.00 0.00 0.00 91 1017.7
20260906055144 22 138 0.0 0.0 0.00 0.00 0.00 92 1017.5
20260906054640 22 143 0.0 0.0 0.00 0.00 0.00 92 1017.5
20260906054134 22 143 0.0 0.0 0.00 0.00 0.00 92 1017.6
20260906053631 22 144 0.0 0.0 0.00 0.00 0.00 92 1017.6
20260906053126 22 152 0.0 0.0 0.00 0.00 0.00 92 1017.4
20260906052621 22 152 0.0 0.0 0.00 0.00 0.00 92 1017.5
20260906052118 22 146 0.0 0.0 0.00 0.00 0.00 92 1017.6
20260906051614 22 144 0.0 0.0 0.00 0.00 0.00 92 1017.8
20260906051109 22 149 0.0 0.0 0.00 0.00 0.00 92 1017.7
20260906050604 22 151 0.0 0.0 0.00 0.00 0.00 92 1017.6
20260906050059 22 145 0.0 0.0 0.00 0.00 0.00 92 1017.6
20260906045557 22 143 0.0 0.0 0.00 0.00 0.00 92 1017.9
20260906045053 22 147 0.0 0.0 0.00 0.00 0.00 92 1017.8
20260906044549 22 139 0.0 0.0 0.00 0.00 0.00 92 1017.7
20260906044044 22 133 0.0 0.0 0.00 0.00 0.00 92 1017.7
20260906043539 22 145 0.0 0.0 0.00 0.00 0.00 92 1017.8
20260906043036 22 145 0.0 0.0 0.00 0.00 0.00 91 1017.9
20260906042534 22 144 0.0 0.0 0.00 0.00 0.00 91 1017.9
20260906042029 22 145 0.0 0.0 0.00 0.00 0.00 91 1018.1
20260906041525 22 144 0.0 0.0 0.00 0.00 0.00 91 1017.9
20260906041025 22 144 0.0 0.0 0.00 0.00 0.00 90 1017.9
20260906040520 22 144 0.0 0.0 0.00 0.00 0.00 90 1017.9
20260906040016 22 144 0.0 0.0 0.00 0.00 0.00 90 1017.9
20260906035510 22 148 0.0 0.0 0.00 0.00 0.00 90 1017.9
20260906035001 22 149 0.0 0.0 0.00 0.00 0.00 89 1017.9
20260906034500 22 146 0.0 0.0 0.00 0.00 0.00 89 1018.0
20260906033955 22 146 0.0 0.0 0.00 0.00 0.00 88 1017.8
20260906033450 22 144 0.0 0.0 0.00 0.00 0.00 87 1018.0
20260906032946 23 143 0.0 0.0 0.00 0.00 0.00 87 1017.9
20260906032443 23 143 0.0 0.0 0.00 0.00 0.00 87 1018.1
20260906031943 23 146 0.0 0.0 0.00 0.00 0.00 86 1018.1
20260906031438 23 139 0.0 0.0 0.00 0.00 0.00 85 1018.1
20260906030933 23 143 0.0 0.0 0.00 0.00 0.00 85 1018.0
20260906030428 23 134 0.0 0.0 0.00 0.00 0.00 85 1018.0
20260906025922 24 145 0.0 0.0 0.00 0.00 0.00 84 1018.1
20260906025417 24 148 0.0 0.0 0.00 0.00 0.00 84 1017.9
20260906024915 24 149 0.0 0.0 0.00 0.00 0.00 84 1018.1
20260906024415 24 145 0.0 0.0 0.00 0.00 0.00 83 1018.2
20260906023910 24 152 0.0 0.0 0.00 0.00 0.00 83 1018.2
20260906023407 25 143 0.0 0.0 0.00 0.00 0.00 83 1018.2
20260906022906 25 163 0.0 1.6 0.00 0.00 0.00 83 1018.1
20260906022401 25 162 0.0 1.6 0.00 0.00 0.00 82 1018.0
20260906021857 25 151 0.0 1.6 0.00 0.00 0.00 81 1017.7
20260906021356 25 146 0.0 0.0 0.00 0.00 0.00 81 1017.5
20260906020851 25 162 0.0 1.6 0.00 0.00 0.00 80 1017.4
20260906020351 25 143 0.0 1.6 0.00 0.00 0.00 80 1017.3
20260906015846 25 171 1.6 1.6 0.00 0.00 0.00 80 1017.5
20260906015344 25 159 0.0 1.6 0.00 0.00 0.00 80 1017.1
20260906014839 25 174 1.6 3.2 0.00 0.00 0.00 81 1017.0
20260906014333 25 147 0.0 0.0 0.00 0.00 0.00 81 1016.8
20260906013830 25 204 3.2 3.2 0.00 0.00 0.00 80 1016.6
20260906013325 25 165 0.0 0.0 0.00 0.00 0.00 80 1016.2
20260906012820 25 142 0.0 1.6 0.00 0.00 0.00 79 1016.2
20260906012315 26 165 0.0 1.6 0.00 0.00 0.00 79 1016.2
20260906011810 26 162 1.6 1.6 0.00 0.00 0.00 78 1016.2
20260906011310 26 149 1.6 1.6 0.00 0.00 0.00 76 1015.9
20260906010806 26 172 1.6 1.6 0.00 0.00 0.00 75 1015.7
20260906010302 26 134 1.6 1.6 0.00 0.00 0.00 74 1015.8
20260906005756 26 151 0.0 1.6 0.00 0.00 0.00 74 1015.5
20260906005255 26 123 0.0 0.0 0.00 0.00 0.00 73 1015.8
20260906004754 26 156 1.6 1.6 0.00 0.00 0.00 73 1015.8
20260906004249 26 151 0.0 1.6 0.00 0.00 0.00 72 1015.8
20260906003744 26 150 0.0 0.0 0.00 0.00 0.00 72 1015.5
20260906003240 26 148 0.0 0.0 0.00 0.00 0.00 71 1015.4
20260906002735 26 144 0.0 0.0 0.00 0.00 0.00 70 1015.1
20260906002234 27 148 0.0 0.0 0.00 0.00 0.00 69 1015.2
20260906001730 27 142 0.0 0.0 0.00 0.00 0.00 68 1015.2
20260906001225 27 142 0.0 0.0 0.00 0.00 0.00 68 1015.2
20260906000721 27 143 0.0 0.0 0.00 0.00 0.00 68 1015.2
20260906000215 27 126 0.0 1.6 0.00 0.00 0.00 67 1015.5
20260905235715 27 155 0.0 0.0 0.00 0.00 0.00 67 1015.4
20260905235210 28 152 0.0 0.0 0.00 0.00 0.00 66 1015.3
20260905234705 28 150 0.0 1.6 0.00 0.00 0.00 65 1015.4
20260905234201 28 141 1.6 1.6 0.00 0.00 0.00 65 1015.5
20260905233656 28 154 0.0 0.0 0.00 0.00 0.00 66 1015.3
20260905233155 28 91 4.8 4.8 0.00 0.00 0.00 66 1015.3
20260905232650 28 142 0.0 0.0 0.00 0.00 0.00 67 1015.1
20260905232146 28 105 3.2 3.2 0.00 0.00 0.00 66 1014.8
20260905231641 28 125 0.0 1.6 0.00 0.00 0.00 65 1014.8
20260905231137 28 138 0.0 0.0 0.00 0.00 0.00 65 1015.3
20260905230633 28 58 8.0 9.7 0.00 0.00 0.00 64 1015.1
20260905230131 28 109 3.2 3.2 0.00 0.00 0.00 65 1014.8
20260905225624 28 21 8.0 14.5 0.00 0.00 0.00 66 1014.5
20260905225120 28 122 3.2 3.2 0.00 0.00 0.00 66 1014.5
20260905224619 28 65 4.8 4.8 0.00 0.00 0.00 64 1014.7
20260905224119 28 46 9.7 11.3 0.00 0.00 0.00 65 1014.5
20260905223616 28 157 1.6 3.2 0.00 0.00 0.00 65 1014.6
20260905223113 28 45 4.8 8.0 0.00 0.00 0.00 64 1014.8
20260905222612 28 86 6.4 9.7 0.00 0.00 0.00 64 1014.9
20260905222108 29 105 6.4 11.3 0.00 0.00 0.00 64 1014.6
20260905221604 29 81 6.4 9.7 0.00 0.00 0.00 64 1014.8
20260905221100 29 44 8.0 11.3 0.00 0.00 0.00 64 1014.8
20260905220555 30 158 1.6 1.6 0.00 0.00 0.00 64 1015.1
20260905220051 29 107 0.0 0.0 0.00 0.00 0.00 63 1015.1
20260905215550 29 179 1.6 1.6 0.00 0.00 0.00 64 1015.4
20260905215046 29 68 6.4 11.3 0.00 0.00 0.00 63 1014.8
20260905214542 29 56 4.8 8.0 0.00 0.00 0.00 63 1015.3
20260905214037 29 66 3.2 4.8 0.00 0.00 0.00 64 1015.3
20260905213532 29 22 6.4 9.7 0.00 0.00 0.00 64 1015.2
20260905213028 29 80 1.6 4.8 0.00 0.00 0.00 64 1015.3
20260905212522 29 115 1.6 1.6 0.00 0.00 0.00 65 1015.2
20260905212022 28 151 1.6 3.2 0.00 0.00 0.00 66 1014.9
20260905211517 28 84 1.6 3.2 0.00 0.00 0.00 66 1015.2
20260905211013 28 101 6.4 12.9 0.00 0.00 0.00 66 1014.9
20260905210509 28 64 3.2 4.8 0.00 0.00 0.00 67 1014.8
20260905210008 28 119 4.8 4.8 0.00 0.00 0.00 67 1015.1
20260905205503 29 338 4.8 8.0 0.00 0.00 0.00 67 1015.3
20260905205001 28 119 4.8 8.0 0.00 0.00 0.00 67 1015.5
20260905204457 29 79 4.8 9.7 0.00 0.00 0.00 65 1015.7
20260905203956 29 123 1.6 1.6 0.00 0.00 0.00 66 1015.8
20260905203452 29 123 1.6 3.2 0.00 0.00 0.00 66 1016.0
20260905202947 28 115 1.6 1.6 0.00 0.00 0.00 68 1016.1
20260905202442 28 40 1.6 3.2 0.00 0.00 0.00 68 1016.3
20260905201938 28 88 1.6 3.2 0.00 0.00 0.00 69 1016.1
20260905201433 27 93 6.4 8.0 0.00 0.00 0.00 68 1016.3
20260905200933 27 96 8.0 9.7 0.00 0.00 0.00 67 1016.4
20260905200429 28 51 3.2 4.8 0.00 0.00 0.00 68 1016.5
20260905195927 28 123 3.2 3.2 0.00 0.00 0.00 69 1016.5
20260905195422 28 42 1.6 1.6 0.00 0.00 0.00 68 1016.9
20260905194918 29 172 3.2 3.2 0.00 0.00 0.00 67 1016.7
20260905194417 28 155 0.0 0.0 0.00 0.00 0.00 69 1016.9
20260905193917 27 174 1.6 1.6 0.00 0.00 0.00 69 1016.8
20260905193412 27 54 3.2 3.2 0.00 0.00 0.00 71 1016.9
20260905192907 28 51 4.8 8.0 0.00 0.00 0.00 69 1017.0
20260905192403 28 146 0.0 1.6 0.00 0.00 0.00 70 1017.1
20260905191857 28 185 3.2 3.2 0.00 0.00 0.00 68 1016.9